Time,TemperatureF,DewpointF,PressureIn,WindDirection,WindDirectionDegrees,WindSpeedMPH,WindSpeedGustMPH,Humidity,HourlyPrecipIn,Conditions,Clouds,dailyrainin,SoftwareType,DateUTC
2013-07-08 00:04:00,59.6,51.7,29.77,SW,232,8.0,0.0,75,0.00,,,0.00,WeatherTracker,2013-07-08 07:04:00,
2013-07-08 00:09:00,59.4,51.8,29.77,SSW,208,4.0,0.0,76,0.00,,,0.00,WeatherTracker,2013-07-08 07:09:00,
2013-07-08 00:14:00,59.1,51.9,29.77,SW,221,5.0,0.0,77,0.00,,,0.00,WeatherTracker,2013-07-08 07:14:00,
2013-07-08 00:19:00,58.8,52.0,29.77,West,259,4.0,0.0,78,0.00,,,0.00,WeatherTracker,2013-07-08 07:19:00,
2013-07-08 00:24:00,58.6,52.1,29.77,SW,219,9.0,0.0,79,0.00,,,0.00,WeatherTracker,2013-07-08 07:24:00,
2013-07-08 00:29:00,58.4,51.9,29.77,SW,229,6.0,0.0,79,0.00,,,0.00,WeatherTracker,2013-07-08 07:29:00,
2013-07-08 00:34:00,58.2,52.1,29.77,WSW,247,6.0,0.0,80,0.00,,,0.00,WeatherTracker,2013-07-08 07:34:00,
2013-07-08 00:39:00,58.0,51.9,29.77,SW,236,6.0,0.0,80,0.00,,,0.00,WeatherTracker,2013-07-08 07:39:00,
2013-07-08 00:44:00,57.8,52.0,29.77,SW,219,5.0,0.0,81,0.00,,,0.00,WeatherTracker,2013-07-08 07:44:00,
2013-07-08 00:49:00,57.7,51.9,29.77,WSW,241,12.0,0.0,81,0.00,,,0.00,WeatherTracker,2013-07-08 07:49:00,
2013-07-08 00:54:00,57.5,51.7,29.77,SSW,205,7.0,0.0,81,0.00,,,0.00,WeatherTracker,2013-07-08 07:54:00,
2013-07-08 00:59:00,57.4,51.6,29.77,WSW,248,6.0,0.0,81,0.00,,,0.00,WeatherTracker,2013-07-08 07:59:00,
2013-07-08 01:04:00,57.4,51.6,29.77,SW,236,5.0,0.0,81,0.00,,,0.00,WeatherTracker,2013-07-08 08:04:00,
2013-07-08 01:09:00,57.4,51.6,29.77,SW,219,3.0,0.0,81,0.00,,,0.00,WeatherTracker,2013-07-08 08:09:00,
2013-07-08 01:14:00,57.4,51.6,29.77,SSW,209,4.0,0.0,81,0.00,,,0.00,WeatherTracker,2013-07-08 08:14:00,
2013-07-08 01:19:00,57.4,51.6,29.78,WSW,257,4.0,0.0,81,0.00,,,0.00,WeatherTracker,2013-07-08 08:19:00,
2013-07-08 01:24:00,57.4,51.6,29.78,SSW,197,5.0,0.0,81,0.00,,,0.00,WeatherTracker,2013-07-08 08:24:00,
2013-07-08 01:29:00,57.3,51.5,29.77,WSW,238,8.0,0.0,81,0.00,,,0.00,WeatherTracker,2013-07-08 08:29:00,
2013-07-08 01:34:00,57.2,51.4,29.77,SW,232,8.0,0.0,81,0.00,,,0.00,WeatherTracker,2013-07-08 08:34:00,
2013-07-08 01:40:00,57.1,51.3,29.78,SW,236,3.0,0.0,81,0.00,,,0.00,WeatherTracker,2013-07-08 08:40:00,
2013-07-08 01:45:00,57.1,51.3,29.77,SW,225,5.0,0.0,81,0.00,,,0.00,WeatherTracker,2013-07-08 08:45:00,
2013-07-08 01:50:00,57.0,51.6,29.77,SSW,206,6.0,0.0,82,0.00,,,0.00,WeatherTracker,2013-07-08 08:50:00,
2013-07-08 01:55:00,56.9,51.5,29.78,SW,222,7.0,0.0,82,0.00,,,0.00,WeatherTracker,2013-07-08 08:55:00,
2013-07-08 02:00:00,56.8,51.4,29.78,WSW,242,4.0,0.0,82,0.00,,,0.00,WeatherTracker,2013-07-08 09:00:00,
2013-07-08 02:05:00,56.8,51.0,29.78,SW,223,3.0,0.0,81,0.00,,,0.00,WeatherTracker,2013-07-08 09:05:00,
2013-07-08 02:10:00,56.7,50.9,29.78,SW,223,7.0,0.0,81,0.00,,,0.00,WeatherTracker,2013-07-08 09:10:00,
2013-07-08 02:15:00,56.7,50.9,29.78,SW,232,5.0,0.0,81,0.00,,,0.00,WeatherTracker,2013-07-08 09:15:00,
2013-07-08 02:20:00,56.5,50.7,29.78,SW,229,4.0,0.0,81,0.00,,,0.00,WeatherTracker,2013-07-08 09:20:00,
2013-07-08 02:25:00,56.4,50.6,29.78,WSW,240,3.0,0.0,81,0.00,,,0.00,WeatherTracker,2013-07-08 09:25:00,
2013-07-08 02:30:00,56.3,50.5,29.77,WSW,252,5.0,0.0,81,0.00,,,0.00,WeatherTracker,2013-07-08 09:30:00,
2013-07-08 02:35:00,56.2,50.4,29.77,SW,222,4.0,0.0,81,0.00,,,0.00,WeatherTracker,2013-07-08 09:35:00,
2013-07-08 02:40:00,56.1,50.3,29.78,WSW,240,7.0,0.0,81,0.00,,,0.00,WeatherTracker,2013-07-08 09:40:00,
2013-07-08 02:45:00,56.0,50.3,29.78,SW,223,8.0,0.0,81,0.00,,,0.00,WeatherTracker,2013-07-08 09:45:00,
2013-07-08 02:50:00,55.9,50.5,29.78,SW,236,4.0,0.0,82,0.00,,,0.00,WeatherTracker,2013-07-08 09:50:00,
2013-07-08 02:55:00,55.9,50.5,29.78,WSW,254,3.0,0.0,82,0.00,,,0.00,WeatherTracker,2013-07-08 09:55:00,
2013-07-08 03:00:00,55.9,50.5,29.77,West,263,5.0,0.0,82,0.00,,,0.00,WeatherTracker,2013-07-08 10:00:00,
2013-07-08 03:05:00,55.9,50.8,29.78,SW,227,4.0,0.0,83,0.00,,,0.00,WeatherTracker,2013-07-08 10:05:00,
2013-07-08 03:10:00,55.9,50.8,29.78,SW,217,5.0,0.0,83,0.00,,,0.00,WeatherTracker,2013-07-08 10:10:00,
2013-07-08 03:15:00,55.8,50.7,29.78,SW,234,11.0,0.0,83,0.00,,,0.00,WeatherTracker,2013-07-08 10:15:00,
2013-07-08 03:20:00,55.8,50.7,29.78,SW,229,9.0,0.0,83,0.00,,,0.00,WeatherTracker,2013-07-08 10:20:00,
2013-07-08 03:25:00,55.7,50.6,29.78,WSW,238,8.0,0.0,83,0.00,,,0.00,WeatherTracker,2013-07-08 10:25:00,
2013-07-08 03:31:00,55.5,50.4,29.78,SW,227,3.0,0.0,83,0.00,,,0.00,WeatherTracker,2013-07-08 10:31:00,
2013-07-08 03:36:00,55.5,50.7,29.78,WSW,240,5.0,0.0,84,0.00,,,0.00,WeatherTracker,2013-07-08 10:36:00,
2013-07-08 03:41:00,55.4,50.6,29.78,West,262,3.0,0.0,84,0.00,,,0.00,WeatherTracker,2013-07-08 10:41:00,
2013-07-08 03:46:00,55.4,50.6,29.78,WNW,285,5.0,0.0,84,0.00,,,0.00,WeatherTracker,2013-07-08 10:46:00,
2013-07-08 03:51:00,55.3,50.5,29.78,SW,230,2.0,0.0,84,0.00,,,0.00,WeatherTracker,2013-07-08 10:51:00,
2013-07-08 03:56:00,55.3,50.5,29.79,SW,227,7.0,0.0,84,0.00,,,0.00,WeatherTracker,2013-07-08 10:56:00,
2013-07-08 04:01:00,55.3,50.5,29.79,WSW,240,5.0,0.0,84,0.00,,,0.00,WeatherTracker,2013-07-08 11:01:00,
2013-07-08 04:06:00,55.2,50.4,29.79,WSW,242,4.0,0.0,84,0.00,,,0.00,WeatherTracker,2013-07-08 11:06:00,
2013-07-08 04:11:00,55.1,50.4,29.79,SW,226,3.0,0.0,84,0.00,,,0.00,WeatherTracker,2013-07-08 11:11:00,
2013-07-08 04:16:00,55.1,50.7,29.79,SW,227,4.0,0.0,85,0.00,,,0.00,WeatherTracker,2013-07-08 11:16:00,
2013-07-08 04:21:00,55.1,50.7,29.79,WSW,238,3.0,0.0,85,0.00,,,0.00,WeatherTracker,2013-07-08 11:21:00,
2013-07-08 04:26:00,55.1,50.7,29.79,WSW,255,4.0,0.0,85,0.00,,,0.00,WeatherTracker,2013-07-08 11:26:00,
2013-07-08 04:31:00,55.1,50.7,29.79,SW,233,6.0,0.0,85,0.00,,,0.00,WeatherTracker,2013-07-08 11:31:00,
2013-07-08 04:36:00,55.1,50.7,29.79,WNW,296,2.0,0.0,85,0.00,,,0.00,WeatherTracker,2013-07-08 11:36:00,
2013-07-08 04:41:00,55.0,50.6,29.79,West,271,4.0,0.0,85,0.00,,,0.00,WeatherTracker,2013-07-08 11:41:00,
2013-07-08 04:46:00,55.0,50.6,29.79,WSW,239,2.0,0.0,85,0.00,,,0.00,WeatherTracker,2013-07-08 11:46:00,
2013-07-08 04:51:00,54.9,50.5,29.79,SSW,212,4.0,0.0,85,0.00,,,0.00,WeatherTracker,2013-07-08 11:51:00,
2013-07-08 04:56:00,54.9,50.5,29.79,WSW,252,4.0,0.0,85,0.00,,,0.00,WeatherTracker,2013-07-08 11:56:00,
2013-07-08 05:01:00,54.9,50.5,29.80,West,259,10.0,0.0,85,0.00,,,0.00,WeatherTracker,2013-07-08 12:01:00,
2013-07-08 05:06:00,54.9,50.5,29.80,SW,235,3.0,0.0,85,0.00,,,0.00,WeatherTracker,2013-07-08 12:06:00,
2013-07-08 05:11:00,54.9,50.5,29.80,WSW,254,4.0,0.0,85,0.00,,,0.00,WeatherTracker,2013-07-08 12:11:00,
2013-07-08 05:16:00,54.9,50.5,29.80,WSW,241,5.0,0.0,85,0.00,,,0.00,WeatherTracker,2013-07-08 12:16:00,
2013-07-08 05:21:00,54.8,50.4,29.80,SW,232,7.0,0.0,85,0.00,,,0.00,WeatherTracker,2013-07-08 12:21:00,
2013-07-08 05:26:00,54.8,50.4,29.80,WSW,250,4.0,0.0,85,0.00,,,0.00,WeatherTracker,2013-07-08 12:26:00,
2013-07-08 05:31:00,54.8,50.4,29.80,SW,233,4.0,0.0,85,0.00,,,0.00,WeatherTracker,2013-07-08 12:31:00,
2013-07-08 05:36:00,54.8,50.4,29.80,WNW,288,3.0,0.0,85,0.00,,,0.00,WeatherTracker,2013-07-08 12:36:00,
2013-07-08 05:42:00,54.7,50.3,29.80,SW,235,5.0,0.0,85,0.00,,,0.00,WeatherTracker,2013-07-08 12:42:00,
2013-07-08 05:47:00,54.7,50.3,29.80,SW,234,4.0,0.0,85,0.00,,,0.00,WeatherTracker,2013-07-08 12:47:00,
2013-07-08 05:52:00,54.6,50.2,29.80,West,267,4.0,0.0,85,0.00,,,0.00,WeatherTracker,2013-07-08 12:52:00,
2013-07-08 05:57:00,54.7,50.3,29.81,WSW,248,3.0,0.0,85,0.00,,,0.00,WeatherTracker,2013-07-08 12:57:00,
2013-07-08 06:02:00,54.7,50.3,29.81,SSW,205,6.0,0.0,85,0.00,,,0.00,WeatherTracker,2013-07-08 13:02:00,
2013-07-08 06:07:00,54.7,50.3,29.81,West,268,2.0,0.0,85,0.00,,,0.00,WeatherTracker,2013-07-08 13:07:00,
2013-07-08 06:12:00,54.7,50.3,29.81,NNW,329,1.0,0.0,85,0.00,,,0.00,WeatherTracker,2013-07-08 13:12:00,
2013-07-08 06:17:00,54.7,50.3,29.82,SW,233,2.0,0.0,85,0.00,,,0.00,WeatherTracker,2013-07-08 13:17:00,
2013-07-08 06:22:00,54.7,50.3,29.82,WSW,241,6.0,0.0,85,0.00,,,0.00,WeatherTracker,2013-07-08 13:22:00,
2013-07-08 06:27:00,54.8,50.4,29.82,WSW,242,3.0,0.0,85,0.00,,,0.00,WeatherTracker,2013-07-08 13:27:00,
2013-07-08 06:32:00,55.0,50.6,29.82,WSW,254,1.0,0.0,85,0.00,,,0.00,WeatherTracker,2013-07-08 13:32:00,
2013-07-08 06:37:00,55.4,51.0,29.82,WSW,242,1.0,0.0,85,0.00,,,0.00,WeatherTracker,2013-07-08 13:37:00,
2013-07-08 06:42:00,55.8,51.0,29.82,SW,232,3.0,0.0,84,0.00,,,0.00,WeatherTracker,2013-07-08 13:42:00,
2013-07-08 06:47:00,56.2,51.1,29.82,West,273,0.0,0.0,83,0.00,,,0.00,WeatherTracker,2013-07-08 13:47:00,
2013-07-08 06:52:00,56.6,51.2,29.82,West,272,3.0,0.0,82,0.00,,,0.00,WeatherTracker,2013-07-08 13:52:00,
2013-07-08 06:57:00,56.9,51.5,29.82,WNW,288,2.0,0.0,82,0.00,,,0.00,WeatherTracker,2013-07-08 13:57:00,
2013-07-08 07:02:00,57.3,51.5,29.83,SW,235,3.0,0.0,81,0.00,,,0.00,WeatherTracker,2013-07-08 14:02:00,
2013-07-08 07:07:00,57.7,51.6,29.83,SW,236,3.0,0.0,80,0.00,,,0.00,WeatherTracker,2013-07-08 14:07:00,
2013-07-08 07:12:00,57.9,51.8,29.83,SW,232,5.0,0.0,80,0.00,,,0.00,WeatherTracker,2013-07-08 14:12:00,
2013-07-08 07:17:00,58.2,51.7,29.84,West,261,6.0,0.0,79,0.00,,,0.00,WeatherTracker,2013-07-08 14:17:00,
2013-07-08 07:22:00,58.6,51.8,29.84,West,277,6.0,0.0,78,0.00,,,0.00,WeatherTracker,2013-07-08 14:22:00,
2013-07-08 07:27:00,58.7,51.5,29.84,SSW,194,4.0,0.0,77,0.00,,,0.00,WeatherTracker,2013-07-08 14:27:00,
2013-07-08 07:32:00,58.9,51.7,29.84,SW,236,3.0,0.0,77,0.00,,,0.00,WeatherTracker,2013-07-08 14:32:00,
2013-07-08 07:37:00,59.2,51.6,29.84,WSW,252,5.0,0.0,76,0.00,,,0.00,WeatherTracker,2013-07-08 14:37:00,
2013-07-08 07:42:00,59.6,52.0,29.84,SW,228,5.0,0.0,76,0.00,,,0.00,WeatherTracker,2013-07-08 14:42:00,
2013-07-08 07:47:00,60.0,52.1,29.84,SSW,208,4.0,0.0,75,0.00,,,0.00,WeatherTracker,2013-07-08 14:47:00,
2013-07-08 07:53:00,60.4,52.1,29.84,West,266,3.0,0.0,74,0.00,,,0.00,WeatherTracker,2013-07-08 14:53:00,
2013-07-08 07:58:00,60.7,52.0,29.84,South,188,9.0,0.0,73,0.00,,,0.00,WeatherTracker,2013-07-08 14:58:00,
2013-07-08 08:03:00,60.9,52.2,29.84,SSW,200,7.0,0.0,73,0.00,,,0.00,WeatherTracker,2013-07-08 15:03:00,
2013-07-08 08:08:00,61.2,52.5,29.84,SSW,205,5.0,0.0,73,0.00,,,0.00,WeatherTracker,2013-07-08 15:08:00,
2013-07-08 08:13:00,61.5,52.4,29.84,SW,233,3.0,0.0,72,0.00,,,0.00,WeatherTracker,2013-07-08 15:13:00,
2013-07-08 08:18:00,61.9,52.4,29.84,SSW,193,2.0,0.0,71,0.00,,,0.00,WeatherTracker,2013-07-08 15:18:00,
2013-07-08 08:23:00,62.3,52.4,29.84,WSW,240,7.0,0.0,70,0.00,,,0.00,WeatherTracker,2013-07-08 15:23:00,
2013-07-08 08:28:00,62.4,52.5,29.85,SW,228,3.0,0.0,70,0.00,,,0.00,WeatherTracker,2013-07-08 15:28:00,
2013-07-08 08:33:00,62.6,52.7,29.85,SW,225,2.0,0.0,70,0.00,,,0.00,WeatherTracker,2013-07-08 15:33:00,
2013-07-08 08:38:00,63.0,52.7,29.85,WSW,238,5.0,0.0,69,0.00,,,0.00,WeatherTracker,2013-07-08 15:38:00,
2013-07-08 08:43:00,63.3,53.0,29.85,SSW,209,4.0,0.0,69,0.00,,,0.00,WeatherTracker,2013-07-08 15:43:00,
2013-07-08 08:48:00,63.7,52.9,29.85,WSW,244,5.0,0.0,68,0.00,,,0.00,WeatherTracker,2013-07-08 15:48:00,
2013-07-08 08:53:00,64.2,53.4,29.85,West,266,6.0,0.0,68,0.00,,,0.00,WeatherTracker,2013-07-08 15:53:00,
2013-07-08 08:58:00,64.7,53.1,29.85,SW,233,3.0,0.0,66,0.00,,,0.00,WeatherTracker,2013-07-08 15:58:00,
2013-07-08 09:03:00,65.3,53.2,29.85,SW,230,6.0,0.0,65,0.00,,,0.00,WeatherTracker,2013-07-08 16:03:00,
2013-07-08 09:08:00,65.8,53.3,29.85,SW,236,6.0,0.0,64,0.00,,,0.00,WeatherTracker,2013-07-08 16:08:00,
2013-07-08 09:13:00,66.2,53.2,29.85,SW,236,5.0,0.0,63,0.00,,,0.00,WeatherTracker,2013-07-08 16:13:00,
2013-07-08 09:18:00,66.3,52.9,29.86,SW,218,3.0,0.0,62,0.00,,,0.00,WeatherTracker,2013-07-08 16:18:00,
2013-07-08 09:23:00,66.7,53.3,29.86,West,271,4.0,0.0,62,0.00,,,0.00,WeatherTracker,2013-07-08 16:23:00,
2013-07-08 09:28:00,67.1,53.6,29.86,WNW,294,2.0,0.0,62,0.00,,,0.00,WeatherTracker,2013-07-08 16:28:00,
2013-07-08 09:33:00,67.4,53.5,29.86,SSW,209,2.0,0.0,61,0.00,,,0.00,WeatherTracker,2013-07-08 16:33:00,
2013-07-08 09:38:00,67.5,53.1,29.86,WSW,248,5.0,0.0,60,0.00,,,0.00,WeatherTracker,2013-07-08 16:38:00,
2013-07-08 09:43:00,67.4,53.5,29.86,WSW,250,6.0,0.0,61,0.00,,,0.00,WeatherTracker,2013-07-08 16:43:00,
2013-07-08 09:49:00,67.9,53.5,29.86,SW,232,2.0,0.0,60,0.00,,,0.00,WeatherTracker,2013-07-08 16:49:00,
2013-07-08 09:54:00,68.4,53.5,29.86,WSW,255,3.0,0.0,59,0.00,,,0.00,WeatherTracker,2013-07-08 16:54:00,
2013-07-08 09:59:00,69.1,54.2,29.86,WSW,244,8.0,0.0,59,0.00,,,0.00,WeatherTracker,2013-07-08 16:59:00,
2013-07-08 10:04:00,69.5,54.1,29.86,SW,225,4.0,0.0,58,0.00,,,0.00,WeatherTracker,2013-07-08 17:04:00,
2013-07-08 10:09:00,69.9,54.0,29.86,WSW,254,0.0,0.0,57,0.00,,,0.00,WeatherTracker,2013-07-08 17:09:00,
2013-07-08 10:14:00,70.7,54.7,29.86,SSW,198,7.0,0.0,57,0.00,,,0.00,WeatherTracker,2013-07-08 17:14:00,
2013-07-08 10:19:00,71.5,54.5,29.86,WSW,255,4.0,0.0,55,0.00,,,0.00,WeatherTracker,2013-07-08 17:19:00,
2013-07-08 10:24:00,72.1,55.0,29.86,WSW,247,3.0,0.0,55,0.00,,,0.00,WeatherTracker,2013-07-08 17:24:00,
2013-07-08 10:29:00,72.8,55.2,29.86,SSW,209,3.0,0.0,54,0.00,,,0.00,WeatherTracker,2013-07-08 17:29:00,
2013-07-08 10:34:00,73.5,55.3,29.86,SSE,167,2.0,0.0,53,0.00,,,0.00,WeatherTracker,2013-07-08 17:34:00,
2013-07-08 10:39:00,74.2,55.4,29.86,WSW,250,2.0,0.0,52,0.00,,,0.00,WeatherTracker,2013-07-08 17:39:00,
2013-07-08 10:44:00,75.0,55.6,29.86,SSW,213,7.0,0.0,51,0.00,,,0.00,WeatherTracker,2013-07-08 17:44:00,
2013-07-08 10:49:00,75.5,55.5,29.86,SW,234,6.0,0.0,50,0.00,,,0.00,WeatherTracker,2013-07-08 17:49:00,
2013-07-08 10:54:00,75.9,55.3,29.86,SSE,160,4.0,0.0,49,0.00,,,0.00,WeatherTracker,2013-07-08 17:54:00,
2013-07-08 11:00:00,76.1,55.5,29.86,SW,225,7.0,0.0,49,0.00,,,0.00,WeatherTracker,2013-07-08 18:00:00,
2013-07-08 11:05:00,76.2,55.6,29.86,SW,215,5.0,0.0,49,0.00,,,0.00,WeatherTracker,2013-07-08 18:05:00,
2013-07-08 11:10:00,76.7,55.5,29.86,SE,136,5.0,0.0,48,0.00,,,0.00,WeatherTracker,2013-07-08 18:10:00,
2013-07-08 11:15:00,77.1,55.3,29.86,South,173,2.0,0.0,47,0.00,,,0.00,WeatherTracker,2013-07-08 18:15:00,
2013-07-08 11:20:00,77.5,55.7,29.86,South,190,2.0,0.0,47,0.00,,,0.00,WeatherTracker,2013-07-08 18:20:00,
2013-07-08 11:25:00,78.1,56.2,29.86,SW,222,5.0,0.0,47,0.00,,,0.00,WeatherTracker,2013-07-08 18:25:00,
2013-07-08 11:30:00,78.3,55.8,29.86,South,190,2.0,0.0,46,0.00,,,0.00,WeatherTracker,2013-07-08 18:30:00,
2013-07-08 11:35:00,78.7,56.2,29.86,SW,226,4.0,0.0,46,0.00,,,0.00,WeatherTracker,2013-07-08 18:35:00,
2013-07-08 11:40:00,79.3,56.1,29.86,SSW,213,3.0,0.0,45,0.00,,,0.00,WeatherTracker,2013-07-08 18:40:00,
2013-07-08 11:45:00,79.7,55.2,29.86,SSW,204,3.0,0.0,43,0.00,,,0.00,WeatherTracker,2013-07-08 18:45:00,
2013-07-08 11:50:00,80.0,55.5,29.86,SW,235,2.0,0.0,43,0.00,,,0.00,WeatherTracker,2013-07-08 18:50:00,
2013-07-08 11:55:00,80.3,55.7,29.86,WNW,290,4.0,0.0,43,0.00,,,0.00,WeatherTracker,2013-07-08 18:55:00,
2013-07-08 12:01:00,80.6,54.0,29.86,WNW,292,1.0,0.0,40,0.00,,,0.00,WeatherTracker,2013-07-08 19:01:00,
2013-07-08 12:06:00,81.2,54.6,29.86,South,183,2.0,0.0,40,0.00,,,0.00,WeatherTracker,2013-07-08 19:06:00,
2013-07-08 12:11:00,81.9,53.0,29.86,SW,223,8.0,0.0,37,0.00,,,0.00,WeatherTracker,2013-07-08 19:11:00,
2013-07-08 12:16:00,81.8,52.2,29.86,SW,229,4.0,0.0,36,0.00,,,0.00,WeatherTracker,2013-07-08 19:16:00,
2013-07-08 12:21:00,81.6,53.5,29.86,SW,219,2.0,0.0,38,0.00,,,0.00,WeatherTracker,2013-07-08 19:21:00,
2013-07-08 12:26:00,82.1,53.2,29.86,SSW,199,5.0,0.0,37,0.00,,,0.00,WeatherTracker,2013-07-08 19:26:00,
2013-07-08 12:31:00,82.6,53.7,29.86,SSW,213,9.0,0.0,37,0.00,,,0.00,WeatherTracker,2013-07-08 19:31:00,
2013-07-08 12:36:00,83.1,52.6,29.86,South,181,3.0,0.0,35,0.00,,,0.00,WeatherTracker,2013-07-08 19:36:00,
2013-07-08 12:41:00,83.6,50.6,29.86,South,190,5.0,0.0,32,0.00,,,0.00,WeatherTracker,2013-07-08 19:41:00,
2013-07-08 12:46:00,84.2,50.3,29.86,SW,229,3.0,0.0,31,0.00,,,0.00,WeatherTracker,2013-07-08 19:46:00,
2013-07-08 12:51:00,84.8,46.1,29.86,SW,222,5.0,0.0,26,0.00,,,0.00,WeatherTracker,2013-07-08 19:51:00,
2013-07-08 12:56:00,85.1,48.3,29.86,South,184,2.0,0.0,28,0.00,,,0.00,WeatherTracker,2013-07-08 19:56:00,
2013-07-08 13:02:00,85.6,45.7,29.86,WSW,238,5.0,0.0,25,0.00,,,0.00,WeatherTracker,2013-07-08 20:02:00,
2013-07-08 13:07:00,86.1,48.2,29.86,SW,221,8.0,0.0,27,0.00,,,0.00,WeatherTracker,2013-07-08 20:07:00,
2013-07-08 13:12:00,86.9,48.9,29.86,SW,231,5.0,0.0,27,0.00,,,0.00,WeatherTracker,2013-07-08 20:12:00,
2013-07-08 13:17:00,87.3,41.3,29.86,SW,222,5.0,0.0,20,0.00,,,0.00,WeatherTracker,2013-07-08 20:17:00,
2013-07-08 13:22:00,87.6,44.0,29.86,SW,220,6.0,0.0,22,0.00,,,0.00,WeatherTracker,2013-07-08 20:22:00,
2013-07-08 13:27:00,88.0,46.6,29.85,West,269,2.0,0.0,24,0.00,,,0.00,WeatherTracker,2013-07-08 20:27:00,
2013-07-08 13:32:00,88.4,43.5,29.85,SSW,200,7.0,0.0,21,0.00,,,0.00,WeatherTracker,2013-07-08 20:32:00,
2013-07-08 13:38:00,88.8,41.2,29.85,SSW,213,2.0,0.0,19,0.00,,,0.00,WeatherTracker,2013-07-08 20:38:00,
2013-07-08 13:43:00,89.0,44.0,29.85,SW,223,4.0,0.0,21,0.00,,,0.00,WeatherTracker,2013-07-08 20:43:00,
2013-07-08 13:48:00,89.2,42.8,29.85,WSW,237,4.0,0.0,20,0.00,,,0.00,WeatherTracker,2013-07-08 20:48:00,
2013-07-08 13:53:00,89.3,41.6,29.85,SSW,196,7.0,0.0,19,0.00,,,0.00,WeatherTracker,2013-07-08 20:53:00,
2013-07-08 13:58:00,89.7,37.5,29.86,West,269,4.0,0.0,16,0.00,,,0.00,WeatherTracker,2013-07-08 20:58:00,
2013-07-08 14:03:00,89.5,38.9,29.85,WSW,246,8.0,0.0,17,0.00,,,0.00,WeatherTracker,2013-07-08 21:03:00,
2013-07-08 14:09:00,89.2,38.7,29.85,WSW,245,8.0,0.0,17,0.00,,,0.00,WeatherTracker,2013-07-08 21:09:00,
2013-07-08 14:14:00,89.2,41.5,29.85,SW,234,7.0,0.0,19,0.00,,,0.00,WeatherTracker,2013-07-08 21:14:00,
2013-07-08 14:19:00,89.1,40.0,29.85,SSW,210,6.0,0.0,18,0.00,,,0.00,WeatherTracker,2013-07-08 21:19:00,
2013-07-08 14:24:00,89.2,37.1,29.85,WNW,288,3.0,0.0,16,0.00,,,0.00,WeatherTracker,2013-07-08 21:24:00,
2013-07-08 14:30:00,89.4,37.3,29.85,South,183,8.0,0.0,16,0.00,,,0.00,WeatherTracker,2013-07-08 21:30:00,
2013-07-08 14:35:00,89.6,37.4,29.85,NNW,340,4.0,0.0,16,0.00,,,0.00,WeatherTracker,2013-07-08 21:35:00,
2013-07-08 14:40:00,90.1,36.2,29.85,SW,227,9.0,0.0,15,0.00,,,0.00,WeatherTracker,2013-07-08 21:40:00,
2013-07-08 14:45:00,90.4,36.4,29.84,WNW,289,9.0,0.0,15,0.00,,,0.00,WeatherTracker,2013-07-08 21:45:00,
2013-07-08 14:50:00,90.4,36.4,29.84,WSW,244,3.0,0.0,15,0.00,,,0.00,WeatherTracker,2013-07-08 21:50:00,
2013-07-08 14:55:00,90.7,36.7,29.84,WSW,249,2.0,0.0,15,0.00,,,0.00,WeatherTracker,2013-07-08 21:55:00,
2013-07-08 15:00:00,91.0,38.5,29.84,WSW,246,8.0,0.0,16,0.00,,,0.00,WeatherTracker,2013-07-08 22:00:00,
2013-07-08 15:05:00,91.0,38.5,29.84,SW,234,8.0,0.0,16,0.00,,,0.00,WeatherTracker,2013-07-08 22:05:00,
2013-07-08 15:10:00,90.9,41.5,29.84,West,264,6.0,0.0,18,0.00,,,0.00,WeatherTracker,2013-07-08 22:10:00,
2013-07-08 15:16:00,90.9,40.0,29.84,SW,222,5.0,0.0,17,0.00,,,0.00,WeatherTracker,2013-07-08 22:16:00,
2013-07-08 15:21:00,91.3,40.3,29.84,WSW,258,10.0,0.0,17,0.00,,,0.00,WeatherTracker,2013-07-08 22:21:00,
2013-07-08 15:26:00,91.6,39.0,29.84,SW,227,8.0,0.0,16,0.00,,,0.00,WeatherTracker,2013-07-08 22:26:00,
2013-07-08 15:31:00,91.6,40.6,29.84,WNW,298,8.0,0.0,17,0.00,,,0.00,WeatherTracker,2013-07-08 22:31:00,
2013-07-08 15:36:00,91.6,40.6,29.84,WSW,250,5.0,0.0,17,0.00,,,0.00,WeatherTracker,2013-07-08 22:36:00,
2013-07-08 15:41:00,91.7,40.7,29.84,SSW,194,3.0,0.0,17,0.00,,,0.00,WeatherTracker,2013-07-08 22:41:00,
2013-07-08 15:46:00,91.8,40.7,29.83,SW,220,7.0,0.0,17,0.00,,,0.00,WeatherTracker,2013-07-08 22:46:00,
2013-07-08 15:51:00,92.0,39.3,29.84,WSW,240,3.0,0.0,16,0.00,,,0.00,WeatherTracker,2013-07-08 22:51:00,
2013-07-08 15:56:00,92.0,39.3,29.84,West,260,0.0,0.0,16,0.00,,,0.00,WeatherTracker,2013-07-08 22:56:00,
2013-07-08 16:02:00,92.2,39.5,29.83,SW,236,4.0,0.0,16,0.00,,,0.00,WeatherTracker,2013-07-08 23:02:00,
2013-07-08 16:07:00,92.3,37.9,29.83,West,269,6.0,0.0,15,0.00,,,0.00,WeatherTracker,2013-07-08 23:07:00,
2013-07-08 16:12:00,92.3,36.2,29.83,WSW,258,4.0,0.0,14,0.00,,,0.00,WeatherTracker,2013-07-08 23:12:00,
2013-07-08 16:17:00,92.3,36.2,29.83,NW,306,5.0,0.0,14,0.00,,,0.00,WeatherTracker,2013-07-08 23:17:00,
2013-07-08 16:22:00,92.4,36.3,29.83,WSW,257,3.0,0.0,14,0.00,,,0.00,WeatherTracker,2013-07-08 23:22:00,
2013-07-08 16:27:00,92.8,34.7,29.83,West,264,5.0,0.0,13,0.00,,,0.00,WeatherTracker,2013-07-08 23:27:00,
2013-07-08 16:32:00,93.1,34.9,29.83,SSW,209,7.0,0.0,13,0.00,,,0.00,WeatherTracker,2013-07-08 23:32:00,
2013-07-08 16:37:00,93.1,36.8,29.83,WNW,291,3.0,0.0,14,0.00,,,0.00,WeatherTracker,2013-07-08 23:37:00,
2013-07-08 16:42:00,93.0,36.7,29.83,WSW,257,8.0,0.0,14,0.00,,,0.00,WeatherTracker,2013-07-08 23:42:00,
2013-07-08 16:48:00,93.0,34.9,29.83,WNW,287,4.0,0.0,13,0.00,,,0.00,WeatherTracker,2013-07-08 23:48:00,
2013-07-08 16:53:00,92.9,32.8,29.83,WSW,246,4.0,0.0,12,0.00,,,0.00,WeatherTracker,2013-07-08 23:53:00,
2013-07-08 16:58:00,93.1,32.9,29.83,WNW,284,4.0,0.0,12,0.00,,,0.00,WeatherTracker,2013-07-08 23:58:00,
2013-07-08 17:03:00,92.7,36.5,29.83,West,263,4.0,0.0,14,0.00,,,0.00,WeatherTracker,2013-07-09 00:03:00,
2013-07-08 17:08:00,92.3,41.1,29.83,WNW,293,2.0,0.0,17,0.00,,,0.00,WeatherTracker,2013-07-09 00:08:00,
2013-07-08 17:13:00,92.4,41.2,29.82,SW,234,7.0,0.0,17,0.00,,,0.00,WeatherTracker,2013-07-09 00:13:00,
2013-07-08 17:18:00,92.5,44.2,29.82,WNW,284,3.0,0.0,19,0.00,,,0.00,WeatherTracker,2013-07-09 00:18:00,
2013-07-08 17:23:00,92.2,49.0,29.82,West,260,5.0,0.0,23,0.00,,,0.00,WeatherTracker,2013-07-09 00:23:00,
2013-07-08 17:28:00,91.7,51.9,29.82,West,267,5.0,0.0,26,0.00,,,0.00,WeatherTracker,2013-07-09 00:28:00,
2013-07-08 17:33:00,91.0,52.3,29.82,West,265,2.0,0.0,27,0.00,,,0.00,WeatherTracker,2013-07-09 00:33:00,
2013-07-08 17:38:00,90.7,53.1,29.82,WSW,251,1.0,0.0,28,0.00,,,0.00,WeatherTracker,2013-07-09 00:38:00,
2013-07-08 17:43:00,90.3,53.7,29.82,SW,236,3.0,0.0,29,0.00,,,0.00,WeatherTracker,2013-07-09 00:43:00,
2013-07-08 17:48:00,89.6,54.0,29.82,SW,229,6.0,0.0,30,0.00,,,0.00,WeatherTracker,2013-07-09 00:48:00,
2013-07-08 17:53:00,89.0,53.5,29.82,WSW,252,8.0,0.0,30,0.00,,,0.00,WeatherTracker,2013-07-09 00:53:00,
2013-07-08 17:59:00,88.2,53.7,29.82,SSW,208,4.0,0.0,31,0.00,,,0.00,WeatherTracker,2013-07-09 00:59:00,
2013-07-08 18:04:00,87.6,54.1,29.82,SW,232,4.0,0.0,32,0.00,,,0.00,WeatherTracker,2013-07-09 01:04:00,
2013-07-08 18:09:00,87.1,53.6,29.82,SW,234,5.0,0.0,32,0.00,,,0.00,WeatherTracker,2013-07-09 01:09:00,
2013-07-08 18:14:00,86.8,54.2,29.82,West,265,4.0,0.0,33,0.00,,,0.00,WeatherTracker,2013-07-09 01:14:00,
2013-07-08 18:19:00,86.9,55.1,29.82,WSW,254,7.0,0.0,34,0.00,,,0.00,WeatherTracker,2013-07-09 01:19:00,
2013-07-08 18:24:00,86.6,54.9,29.82,NW,306,2.0,0.0,34,0.00,,,0.00,WeatherTracker,2013-07-09 01:24:00,
2013-07-08 18:29:00,86.7,55.7,29.82,West,265,2.0,0.0,35,0.00,,,0.00,WeatherTracker,2013-07-09 01:29:00,
2013-07-08 18:34:00,87.0,56.0,29.82,SW,214,4.0,0.0,35,0.00,,,0.00,WeatherTracker,2013-07-09 01:34:00,
2013-07-08 18:39:00,87.2,55.4,29.82,SW,224,4.0,0.0,34,0.00,,,0.00,WeatherTracker,2013-07-09 01:39:00,
2013-07-08 18:45:00,87.2,55.4,29.82,SW,218,6.0,0.0,34,0.00,,,0.00,WeatherTracker,2013-07-09 01:45:00,
2013-07-08 18:50:00,86.7,55.7,29.82,West,263,3.0,0.0,35,0.00,,,0.00,WeatherTracker,2013-07-09 01:50:00,
2013-07-08 18:55:00,86.2,56.1,29.82,SW,232,1.0,0.0,36,0.00,,,0.00,WeatherTracker,2013-07-09 01:55:00,
2013-07-08 19:00:00,85.9,55.8,29.82,SW,227,5.0,0.0,36,0.00,,,0.00,WeatherTracker,2013-07-09 02:00:00,
2013-07-08 19:05:00,85.6,56.3,29.82,SW,223,4.0,0.0,37,0.00,,,0.00,WeatherTracker,2013-07-09 02:05:00,
2013-07-08 19:10:00,85.2,56.0,29.83,WSW,243,2.0,0.0,37,0.00,,,0.00,WeatherTracker,2013-07-09 02:10:00,
2013-07-08 19:15:00,84.7,55.5,29.83,WSW,253,4.0,0.0,37,0.00,,,0.00,WeatherTracker,2013-07-09 02:15:00,
2013-07-08 19:20:00,84.1,55.7,29.83,SW,236,3.0,0.0,38,0.00,,,0.00,WeatherTracker,2013-07-09 02:20:00,
2013-07-08 19:25:00,83.1,55.5,29.83,WSW,245,3.0,0.0,39,0.00,,,0.00,WeatherTracker,2013-07-09 02:25:00,
2013-07-08 19:30:00,82.6,55.8,29.82,SW,232,4.0,0.0,40,0.00,,,0.00,WeatherTracker,2013-07-09 02:30:00,
2013-07-08 19:35:00,82.2,55.4,29.83,WNW,296,2.0,0.0,40,0.00,,,0.00,WeatherTracker,2013-07-09 02:35:00,
2013-07-08 19:41:00,81.9,55.9,29.83,SW,223,4.0,0.0,41,0.00,,,0.00,WeatherTracker,2013-07-09 02:41:00,
2013-07-08 19:46:00,81.7,55.7,29.83,West,263,6.0,0.0,41,0.00,,,0.00,WeatherTracker,2013-07-09 02:46:00,
2013-07-08 19:51:00,81.3,56.0,29.83,West,265,2.0,0.0,42,0.00,,,0.00,WeatherTracker,2013-07-09 02:51:00,
2013-07-08 19:56:00,80.5,55.3,29.83,SW,236,5.0,0.0,42,0.00,,,0.00,WeatherTracker,2013-07-09 02:56:00,
2013-07-08 20:01:00,79.7,55.8,29.83,WSW,243,3.0,0.0,44,0.00,,,0.00,WeatherTracker,2013-07-09 03:01:00,
2013-07-08 20:06:00,79.0,55.8,29.83,WSW,250,3.0,0.0,45,0.00,,,0.00,WeatherTracker,2013-07-09 03:06:00,
2013-07-08 20:11:00,78.4,55.9,29.83,West,266,2.0,0.0,46,0.00,,,0.00,WeatherTracker,2013-07-09 03:11:00,
2013-07-08 20:16:00,77.8,55.9,29.83,WSW,242,2.0,0.0,47,0.00,,,0.00,WeatherTracker,2013-07-09 03:16:00,
2013-07-08 20:21:00,77.2,56.0,29.83,SW,225,2.0,0.0,48,0.00,,,0.00,WeatherTracker,2013-07-09 03:21:00,
2013-07-08 20:26:00,76.7,56.1,29.83,SW,234,1.0,0.0,49,0.00,,,0.00,WeatherTracker,2013-07-09 03:26:00,
2013-07-08 20:32:00,76.1,56.1,29.83,SW,229,2.0,0.0,50,0.00,,,0.00,WeatherTracker,2013-07-09 03:32:00,
2013-07-08 20:37:00,75.6,56.2,29.83,SW,236,0.0,0.0,51,0.00,,,0.00,WeatherTracker,2013-07-09 03:37:00,
2013-07-08 20:42:00,75.0,56.2,29.83,WSW,237,2.0,0.0,52,0.00,,,0.00,WeatherTracker,2013-07-09 03:42:00,
2013-07-08 20:47:00,74.4,56.1,29.83,SW,234,3.0,0.0,53,0.00,,,0.00,WeatherTracker,2013-07-09 03:47:00,
2013-07-08 20:52:00,73.9,56.2,29.83,SW,236,2.0,0.0,54,0.00,,,0.00,WeatherTracker,2013-07-09 03:52:00,
2013-07-08 20:57:00,73.4,56.2,29.84,SSW,211,3.0,0.0,55,0.00,,,0.00,WeatherTracker,2013-07-09 03:57:00,
2013-07-08 21:01:00,73.1,56.0,29.84,SW,225,0.0,0.0,55,0.00,,,0.00,WeatherTracker,2013-07-09 04:01:00,
2013-07-08 21:06:00,72.7,56.1,29.84,SSW,204,0.0,0.0,56,0.00,,,0.00,WeatherTracker,2013-07-09 04:06:00,
2013-07-08 21:11:00,72.3,56.2,29.84,SSE,168,1.0,0.0,57,0.00,,,0.00,WeatherTracker,2013-07-09 04:11:00,
2013-07-08 21:16:00,71.9,56.3,29.85,SW,236,2.0,0.0,58,0.00,,,0.00,WeatherTracker,2013-07-09 04:16:00,
2013-07-08 21:21:00,71.5,56.4,29.85,SSW,213,0.0,0.0,59,0.00,,,0.00,WeatherTracker,2013-07-09 04:21:00,
2013-07-08 21:27:00,71.2,56.1,29.85,WSW,252,5.0,0.0,59,0.00,,,0.00,WeatherTracker,2013-07-09 04:27:00,
2013-07-08 21:32:00,70.8,56.2,29.85,SW,214,4.0,0.0,60,0.00,,,0.00,WeatherTracker,2013-07-09 04:32:00,
2013-07-08 21:37:00,70.5,56.4,29.86,WSW,244,1.0,0.0,61,0.00,,,0.00,WeatherTracker,2013-07-09 04:37:00,
2013-07-08 21:42:00,70.1,56.0,29.86,SW,229,3.0,0.0,61,0.00,,,0.00,WeatherTracker,2013-07-09 04:42:00,
2013-07-08 21:47:00,69.7,56.1,29.86,WSW,247,5.0,0.0,62,0.00,,,0.00,WeatherTracker,2013-07-09 04:47:00,
2013-07-08 21:52:00,69.3,56.2,29.86,SW,216,4.0,0.0,63,0.00,,,0.00,WeatherTracker,2013-07-09 04:52:00,
2013-07-08 21:57:00,68.9,56.2,29.86,SW,234,2.0,0.0,64,0.00,,,0.00,WeatherTracker,2013-07-09 04:57:00,
2013-07-08 22:02:00,68.6,55.9,29.86,SW,227,2.0,0.0,64,0.00,,,0.00,WeatherTracker,2013-07-09 05:02:00,
2013-07-08 22:07:00,68.5,56.3,29.87,SSW,199,0.0,0.0,65,0.00,,,0.00,WeatherTracker,2013-07-09 05:07:00,
2013-07-08 22:12:00,68.3,56.1,29.87,West,269,4.0,0.0,65,0.00,,,0.00,WeatherTracker,2013-07-09 05:12:00,
2013-07-08 22:17:00,68.1,56.3,29.87,SSW,198,1.0,0.0,66,0.00,,,0.00,WeatherTracker,2013-07-09 05:17:00,
2013-07-08 22:22:00,67.8,56.4,29.87,SSW,209,1.0,0.0,67,0.00,,,0.00,WeatherTracker,2013-07-09 05:22:00,
2013-07-08 22:27:00,67.5,56.1,29.87,SSW,198,2.0,0.0,67,0.00,,,0.00,WeatherTracker,2013-07-09 05:27:00,
2013-07-08 22:32:00,67.2,56.3,29.88,SW,216,3.0,0.0,68,0.00,,,0.00,WeatherTracker,2013-07-09 05:32:00,
2013-07-08 22:37:00,66.9,56.0,29.88,SSW,207,0.0,0.0,68,0.00,,,0.00,WeatherTracker,2013-07-09 05:37:00,
2013-07-08 22:42:00,66.5,56.0,29.88,South,171,1.0,0.0,69,0.00,,,0.00,WeatherTracker,2013-07-09 05:42:00,
2013-07-08 22:47:00,66.2,56.1,29.88,SW,228,2.0,0.0,70,0.00,,,0.00,WeatherTracker,2013-07-09 05:47:00,
2013-07-08 22:48:00,66.2,56.1,29.88,WNW,285,4.0,0.0,70,0.00,,,0.00,WeatherTracker,2013-07-09 05:48:00,
2013-07-08 22:53:00,65.8,55.7,29.88,West,265,4.0,0.0,70,0.00,,,0.00,WeatherTracker,2013-07-09 05:53:00,
2013-07-08 22:58:00,65.6,55.9,29.88,SW,232,3.0,0.0,71,0.00,,,0.00,WeatherTracker,2013-07-09 05:58:00,
2013-07-08 23:03:00,65.3,55.6,29.88,WSW,240,3.0,0.0,71,0.00,,,0.00,WeatherTracker,2013-07-09 06:03:00,
2013-07-08 23:08:00,65.0,55.7,29.88,WNW,286,6.0,0.0,72,0.00,,,0.00,WeatherTracker,2013-07-09 06:08:00,
2013-07-08 23:13:00,64.8,55.6,29.88,SSW,211,6.0,0.0,72,0.00,,,0.00,WeatherTracker,2013-07-09 06:13:00,
2013-07-08 23:18:00,64.5,55.6,29.88,West,264,2.0,0.0,73,0.00,,,0.00,WeatherTracker,2013-07-09 06:18:00,
2013-07-08 23:23:00,64.3,55.5,29.88,WSW,254,8.0,0.0,73,0.00,,,0.00,WeatherTracker,2013-07-09 06:23:00,
2013-07-08 23:28:00,64.1,55.3,29.88,SSW,198,4.0,0.0,73,0.00,,,0.00,WeatherTracker,2013-07-09 06:28:00,
2013-07-08 23:33:00,63.8,55.3,29.88,WSW,257,4.0,0.0,74,0.00,,,0.00,WeatherTracker,2013-07-09 06:33:00,
2013-07-08 23:38:00,63.5,55.4,29.88,West,268,4.0,0.0,75,0.00,,,0.00,WeatherTracker,2013-07-09 06:38:00,
2013-07-08 23:43:00,63.2,55.1,29.88,West,269,3.0,0.0,75,0.00,,,0.00,WeatherTracker,2013-07-09 06:43:00,
2013-07-08 23:48:00,63.0,55.3,29.88,West,278,2.0,0.0,76,0.00,,,0.00,WeatherTracker,2013-07-09 06:48:00,
2013-07-08 23:53:00,62.8,55.1,29.89,West,277,1.0,0.0,76,0.00,,,0.00,WeatherTracker,2013-07-09 06:53:00,
2013-07-08 23:59:00,62.6,54.9,29.88,WNW,300,2.0,0.0,76,0.00,,,0.00,WeatherTracker,2013-07-09 06:59:00,